GW1769 Weather Reports


time (UTC)temp
F
wind
direction
speed
knots
gust
knots
rain 1hr
in
rain 24hr
in
rain mn
in
humidity
%
barometer
mb
20260901054631 65 179 0.0 0.0 0.00 0.00 0.00 99 1014.1
20260901054127 65 179 0.0 0.0 0.00 0.00 0.00 99 1014.0
20260901053623 65 179 0.0 0.0 0.00 0.00 0.00 99 1014.2
20260901053118 65 181 0.0 0.0 0.00 0.00 0.00 99 1014.2
20260901052618 65 179 0.0 0.0 0.00 0.00 0.00 99 1013.9
20260901052114 65 181 0.0 0.0 0.00 0.00 0.00 99 1013.9
20260901051613 65 180 0.0 0.0 0.00 0.00 0.00 99 1014.1
20260901051112 65 179 0.0 0.0 0.00 0.00 0.00 99 1014.1
20260901050608 65 180 0.0 0.0 0.00 0.00 0.00 99 1014.2
20260901045557 65 179 0.0 0.0 0.00 0.00 0.00 99 1014.2
20260901045052 65 179 0.0 0.0 0.00 0.00 0.00 99 1013.9
20260901044548 65 179 0.0 0.0 0.00 0.00 0.00 99 1014.1
20260901044044 65 179 0.0 0.0 0.00 0.00 0.00 99 1014.0
20260901043539 65 181 0.0 0.0 0.00 0.00 0.00 99 1014.2
20260901043035 65 179 0.0 0.0 0.00 0.00 0.00 99 1014.0
20260901042534 65 179 0.0 0.0 0.00 0.00 0.00 99 1014.4
20260901042030 65 179 0.0 0.0 0.00 0.00 0.00 99 1014.2
20260901041525 65 180 0.0 0.0 0.00 0.00 0.00 99 1014.3
20260901041019 65 180 0.0 0.0 0.00 0.00 0.00 99 1014.3
20260901040513 65 180 0.0 0.0 0.00 0.00 0.00 99 1014.4
20260901040008 65 180 0.0 0.0 0.00 0.00 0.00 99 1014.2
20260901035506 65 180 0.0 0.0 0.00 0.00 0.00 99 1014.4
20260901035004 65 180 0.0 0.0 0.00 0.00 0.00 99 1014.1
20260901034504 65 179 0.0 0.0 0.00 0.00 0.00 99 1014.2
20260901033959 65 179 0.0 0.0 0.00 0.00 0.00 99 1013.9
20260901033458 65 179 0.0 0.0 0.00 0.00 0.00 99 1014.1
20260901032957 65 179 0.0 0.0 0.00 0.00 0.00 99 1014.2
20260901032452 65 179 0.0 0.0 0.00 0.00 0.00 99 1014.2
20260901031947 65 179 0.0 0.0 0.00 0.00 0.00 99 1014.1
20260901031443 65 177 0.0 0.0 0.00 0.00 0.00 99 1014.2
20260901030942 65 176 0.0 0.0 0.00 0.00 0.00 99 1014.2
20260901030438 65 177 0.0 0.0 0.00 0.00 0.00 99 1014.3
20260901025937 65 174 0.0 0.0 0.00 0.00 0.00 99 1014.2
20260901025432 65 177 0.0 0.0 0.00 0.00 0.00 99 1014.6
20260901024931 65 177 0.0 0.0 0.00 0.00 0.00 99 1014.7
20260901024426 65 177 0.0 0.0 0.00 0.00 0.00 99 1014.4
20260901023924 65 177 0.0 0.0 0.00 0.00 0.00 99 1014.8
20260901023419 65 176 0.0 0.0 0.00 0.00 0.00 99 1014.9
20260901022914 65 176 0.0 0.0 0.00 0.00 0.00 99 1014.7
20260901022410 65 179 0.0 0.0 0.00 0.00 0.00 99 1014.8
20260901021905 65 179 0.0 0.0 0.00 0.00 0.00 99 1014.9
20260901021401 65 179 0.0 0.0 0.00 0.00 0.00 99 1014.8
20260901020855 65 179 0.0 0.0 0.00 0.00 0.00 99 1015.0
20260901020350 65 177 0.0 0.0 0.00 0.00 0.00 99 1015.1
20260901015844 65 179 0.0 0.0 0.00 0.00 0.00 99 1015.0
20260901015341 65 179 0.0 0.0 0.00 0.00 0.00 99 1015.2
20260901014840 65 179 0.0 0.0 0.00 0.00 0.00 99 1015.0
20260901014336 65 180 0.0 0.0 0.00 0.00 0.00 99 1014.9
20260901013832 65 179 0.0 0.0 0.00 0.00 0.00 99 1014.8
20260901013327 65 179 0.0 0.0 0.00 0.00 0.00 99 1015.0
20260901012822 66 179 0.0 0.0 0.00 0.00 0.00 99 1014.9
20260901012317 66 180 0.0 0.0 0.00 0.00 0.00 99 1014.7
20260901011813 65 180 0.0 0.0 0.00 0.00 0.00 99 1014.9
20260901011308 65 180 0.0 0.0 0.00 0.00 0.00 99 1015.0
20260901010801 65 180 0.0 0.0 0.00 0.00 0.00 99 1014.9
20260901010256 66 181 0.0 0.0 0.00 0.00 0.00 99 1014.7
20260901005755 66 179 0.0 0.0 0.00 0.00 0.00 99 1014.8
20260901005250 65 179 0.0 0.0 0.00 0.00 0.00 99 1014.8
20260901004744 66 179 0.0 0.0 0.00 0.00 0.00 99 1015.0
20260901004239 66 179 0.0 0.0 0.00 0.00 0.00 99 1014.9
20260901003733 66 176 0.0 0.0 0.00 0.00 0.00 99 1015.0
20260901003233 65 179 0.0 0.0 0.00 0.00 0.00 99 1014.9
20260901002726 65 179 0.0 0.0 0.00 0.00 0.00 98 1014.6
20260901002222 65 181 0.0 0.0 0.00 0.00 0.00 98 1014.8
20260901001717 65 179 0.0 0.0 0.00 0.00 0.00 98 1015.0
20260901001212 65 179 0.0 0.0 0.00 0.00 0.00 98 1014.9
20260901000708 65 179 0.0 0.0 0.00 0.00 0.00 97 1014.9
20260901000203 65 180 0.0 0.0 0.00 0.00 0.00 97 1015.1
20260831235656 65 181 0.0 0.0 0.00 0.00 0.00 97 1015.2
20260831235152 65 181 0.0 0.0 0.00 0.00 0.00 97 1015.2
20260831234651 65 179 0.0 0.0 0.00 0.00 0.00 97 1015.0
20260831234147 66 179 0.0 0.0 0.00 0.00 0.00 97 1015.0
20260831233642 66 181 0.0 0.0 0.00 0.00 0.00 97 1015.0
20260831233137 66 185 0.0 0.0 0.00 0.00 0.00 97 1015.0
20260831232632 66 180 0.0 0.0 0.00 0.00 0.00 97 1015.0
20260831232128 66 179 0.0 0.0 0.00 0.00 0.00 97 1015.0
20260831231624 66 179 0.0 0.0 0.00 0.00 0.00 97 1015.0
20260831231120 66 179 0.0 0.0 0.00 0.00 0.00 97 1015.2
20260831230615 67 180 0.0 0.0 0.00 0.00 0.00 97 1015.2
20260831230110 67 180 0.0 0.0 0.00 0.00 0.00 97 1015.0
20260831225604 67 179 0.0 0.0 0.00 0.00 0.00 97 1015.4
20260831225059 67 179 0.0 0.0 0.00 0.00 0.00 97 1015.4
20260831224554 68 176 0.0 0.0 0.00 0.00 0.00 96 1015.4
20260831224049 68 180 0.0 0.0 0.00 0.00 0.00 96 1015.5
20260831223544 68 187 0.0 0.0 0.00 0.00 0.00 95 1015.5
20260831223041 68 180 0.0 0.0 0.00 0.00 0.00 95 1015.4
20260831222536 68 181 0.0 0.0 0.00 0.00 0.00 95 1015.1
20260831222031 68 179 0.0 0.0 0.00 0.00 0.00 94 1015.3
20260831221526 68 180 0.0 0.0 0.00 0.00 0.00 94 1015.2
20260831221021 69 172 0.0 0.0 0.00 0.00 0.00 93 1015.3
20260831220517 69 179 0.0 0.0 0.00 0.00 0.00 92 1015.4
20260831220012 69 179 0.0 0.0 0.00 0.00 0.00 92 1015.6
20260831215508 69 176 0.0 0.0 0.00 0.00 0.00 91 1015.4
20260831215003 69 179 0.0 0.0 0.00 0.00 0.00 91 1015.5
20260831214501 70 177 0.0 0.0 0.00 0.00 0.00 91 1015.6
20260831213956 70 173 0.0 0.0 0.00 0.00 0.00 90 1015.4
20260831213453 70 179 0.0 0.0 0.00 0.00 0.00 90 1015.5
20260831212952 70 179 0.0 0.0 0.00 0.00 0.00 90 1015.5
20260831212448 70 181 0.0 0.0 0.00 0.00 0.00 91 1015.5
20260831211943 70 179 0.0 0.0 0.00 0.00 0.00 90 1015.4
20260831211438 70 179 0.0 0.0 0.00 0.00 0.00 90 1015.3
20260831210937 70 174 0.0 0.0 0.00 0.00 0.00 89 1015.5
20260831210433 70 179 0.0 0.0 0.00 0.00 0.00 90 1015.6
20260831205929 70 179 0.0 0.0 0.00 0.00 0.00 88 1015.3
20260831205424 70 179 0.0 0.0 0.00 0.00 0.00 90 1015.5
20260831204919 70 180 0.0 0.0 0.00 0.00 0.00 90 1015.6
20260831204418 70 180 0.0 0.0 0.00 0.00 0.00 90 1015.3
20260831203912 70 179 0.0 0.0 0.00 0.00 0.00 90 1015.7
20260831203406 70 180 0.0 0.0 0.00 0.00 0.00 92 1015.5
20260831202904 69 179 0.0 0.0 0.00 0.00 0.00 91 1015.6
20260831202359 69 178 0.0 0.0 0.00 0.00 0.00 92 1015.5
20260831201854 69 180 0.0 0.0 0.00 0.00 0.00 92 1015.4
20260831201352 69 175 0.0 0.0 0.00 0.00 0.00 92 1015.6
20260831200849 68 168 0.0 0.0 0.00 0.00 0.00 92 1015.9
20260831200343 68 178 0.0 0.0 0.00 0.00 0.00 94 1015.6
20260831195838 68 177 0.0 0.0 0.00 0.00 0.00 94 1015.7
20260831195334 69 180 0.0 0.0 0.00 0.00 0.00 93 1015.7
20260831194830 69 180 0.0 0.0 0.00 0.00 0.00 91 1016.0
20260831194325 69 195 0.0 0.0 0.00 0.00 0.00 90 1015.7
20260831193824 70 173 0.0 0.0 0.00 0.00 0.00 88 1015.7
20260831193319 70 179 0.0 0.0 0.00 0.00 0.00 87 1015.8
20260831192814 71 180 0.0 0.0 0.00 0.00 0.00 86 1015.6
20260831192309 71 179 0.0 0.0 0.00 0.00 0.00 85 1016.0
20260831191805 71 174 0.0 0.0 0.00 0.00 0.00 84 1015.8
20260831191301 72 180 0.0 0.0 0.00 0.00 0.00 84 1015.8
20260831190756 72 171 0.0 0.0 0.00 0.00 0.00 83 1016.0
20260831190250 72 185 0.0 0.0 0.00 0.00 0.00 83 1015.9
20260831185750 73 174 0.0 0.0 0.00 0.00 0.00 82 1015.9
20260831185246 73 200 0.9 1.7 0.00 0.00 0.00 80 1016.0
20260831184745 74 174 0.9 0.9 0.00 0.00 0.00 80 1016.2
20260831184241 74 192 0.0 0.0 0.00 0.00 0.00 82 1016.2
20260831183736 73 177 0.9 0.9 0.00 0.00 0.00 80 1016.4
20260831183236 73 194 0.9 0.9 0.00 0.00 0.00 81 1016.4
20260831182734 73 161 0.0 0.9 0.00 0.00 0.00 82 1016.6
20260831182230 73 141 0.0 0.0 0.00 0.00 0.00 84 1016.5
20260831181730 73 179 0.0 0.9 0.00 0.00 0.00 81 1016.4
20260831181226 72 183 0.0 0.0 0.00 0.00 0.00 82 1016.7
20260831180720 72 172 0.0 0.0 0.00 0.00 0.00 86 1016.5
20260831180220 71 183 0.0 0.0 0.00 0.00 0.00 85 1016.7
20260831175719 71 168 0.0 0.0 0.00 0.00 0.00 84 1016.3
20260831175217 71 183 0.0 0.0 0.00 0.00 0.00 83 1016.7
20260831174716 72 181 0.0 0.0 0.00 0.00 0.00 82 1016.7
20260831174212 72 158 0.0 0.0 0.00 0.00 0.00 83 1016.9
20260831173711 72 141 0.0 0.0 0.00 0.00 0.00 82 1016.8
20260831173206 72 176 0.9 0.9 0.00 0.00 0.00 84 1016.9
20260831172701 72 155 0.9 0.9 0.00 0.00 0.00 82 1016.7
20260831172156 71 182 0.0 0.0 0.00 0.00 0.00 85 1016.6
20260831171651 71 186 0.0 0.0 0.00 0.00 0.00 86 1016.9
20260831171149 70 184 0.0 0.0 0.00 0.00 0.00 87 1017.0
20260831170645 70 183 0.0 0.9 0.00 0.00 0.00 86 1017.0
20260831170141 70 174 0.0 0.0 0.00 0.00 0.00 88 1016.9
20260831165637 70 177 0.0 0.0 0.00 0.00 0.00 87 1016.7
20260831165133 70 172 0.0 0.0 0.00 0.00 0.00 88 1017.0
20260831164629 70 177 0.0 0.0 0.00 0.00 0.00 87 1017.0
20260831164124 71 177 0.0 0.0 0.00 0.00 0.00 86 1017.3
20260831163619 71 181 0.0 0.0 0.00 0.00 0.00 86 1017.4
20260831163115 71 178 0.0 0.0 0.00 0.00 0.00 85 1017.6
20260831162614 72 178 0.0 0.0 0.00 0.00 0.00 85 1017.4
20260831162112 72 167 0.0 0.9 0.00 0.00 0.00 83 1017.4
20260831161608 71 203 0.0 0.0 0.00 0.00 0.00 81 1017.5
20260831161104 72 177 0.0 0.0 0.00 0.00 0.00 80 1017.3
20260831160603 71 179 0.0 0.0 0.00 0.00 0.00 83 1017.5
20260831160059 71 152 0.9 1.7 0.00 0.00 0.00 81 1017.5
20260831155559 72 193 0.9 0.9 0.00 0.00 0.00 81 1017.5
20260831155054 72 187 0.9 0.9 0.00 0.00 0.00 81 1017.4
20260831154551 73 190 0.0 0.0 0.00 0.00 0.00 78 1017.8
20260831154050 73 185 0.0 0.9 0.00 0.00 0.00 80 1017.7
20260831153549 72 175 0.0 0.9 0.00 0.00 0.00 80 1017.5
20260831153047 73 172 0.9 0.9 0.00 0.00 0.00 78 1017.5
20260831152542 74 190 0.0 0.0 0.00 0.00 0.00 77 1017.4
20260831152037 73 201 0.0 0.0 0.00 0.00 0.00 77 1017.9
20260831151531 73 180 0.0 0.0 0.00 0.00 0.00 84 1017.5
20260831151031 71 177 0.0 0.0 0.00 0.00 0.00 84 1017.6
20260831150526 72 178 0.0 0.0 0.00 0.00 0.00 84 1017.7
20260831150023 73 182 0.0 0.0 0.00 0.00 0.00 80 1017.6
20260831145517 71 197 0.9 0.9 0.00 0.00 0.00 80 1017.8
20260831145013 71 181 0.0 0.0 0.00 0.00 0.00 84 1017.8
20260831144508 71 69 1.7 2.6 0.00 0.00 0.00 83 1017.7
20260831144003 70 190 0.9 0.9 0.00 0.00 0.00 82 1017.6
20260831143458 71 176 0.0 0.0 0.00 0.00 0.00 82 1017.7
20260831142954 70 185 0.0 0.0 0.00 0.00 0.00 85 1017.5
20260831142450 69 201 0.0 0.0 0.00 0.00 0.00 87 1018.0
20260831141944 68 175 0.0 0.9 0.00 0.00 0.00 87 1017.9
20260831141438 69 171 0.0 0.0 0.00 0.00 0.00 87 1017.7
20260831140933 69 171 0.0 0.0 0.00 0.00 0.00 85 1017.5
20260831140427 69 161 1.7 1.7 0.00 0.00 0.00 85 1017.7
20260831135926 69 166 0.0 0.0 0.00 0.00 0.00 86 1017.7
20260831135425 70 167 0.0 0.9 0.00 0.00 0.00 84 1017.7
20260831134921 69 178 0.0 0.0 0.00 0.00 0.00 85 1017.7
20260831134417 70 179 0.0 0.0 0.00 0.00 0.00 84 1017.6
20260831133917 71 159 0.0 0.9 0.00 0.00 0.00 82 1017.6
20260831133412 70 172 0.0 0.9 0.00 0.00 0.00 88 1017.5
20260831132907 69 173 0.9 1.7 0.00 0.00 0.00 87 1017.6
20260831132402 68 216 1.7 1.7 0.00 0.00 0.00 90 1017.6
20260831131902 67 172 0.0 0.0 0.00 0.00 0.00 91 1017.5
20260831131357 67 187 0.0 0.9 0.00 0.00 0.00 92 1017.8
20260831130853 67 176 0.0 0.0 0.00 0.00 0.00 93 1017.5
20260831130348 67 196 0.9 0.9 0.00 0.00 0.00 92 1017.5
20260831125847 68 176 0.9 1.7 0.00 0.00 0.00 92 1017.8
20260831125342 67 177 0.0 0.0 0.00 0.00 0.00 92 1017.7
20260831124837 67 195 0.0 0.0 0.00 0.00 0.00 91 1017.7
20260831124333 67 181 0.0 0.0 0.00 0.00 0.00 92 1017.8
20260831123833 67 181 0.0 0.0 0.00 0.00 0.00 92 1017.6
20260831123332 67 175 0.0 0.0 0.00 0.00 0.00 92 1017.6
20260831122827 66 177 0.0 0.0 0.00 0.00 0.00 95 1017.9
20260831122323 66 176 0.0 0.0 0.00 0.00 0.00 96 1017.8
20260831121822 65 203 0.0 0.0 0.00 0.00 0.00 98 1017.9
20260831121319 65 191 0.0 0.0 0.00 0.00 0.00 99 1017.9
20260831120814 64 179 0.0 0.0 0.00 0.00 0.00 99 1017.9
20260831120308 64 176 0.0 0.0 0.00 0.00 0.00 99 1017.7
20260831115803 64 177 0.0 0.0 0.00 0.00 0.00 99 1017.6
20260831115300 64 179 0.0 0.0 0.00 0.00 0.00 99 1017.7
20260831114758 63 184 0.0 0.0 0.00 0.00 0.00 99 1017.8
20260831114253 64 177 0.0 0.0 0.00 0.00 0.00 99 1017.8
20260831113748 63 184 0.0 0.0 0.00 0.00 0.00 99 1017.6
20260831113243 63 176 0.0 0.0 0.00 0.00 0.00 99 1017.4
20260831112742 63 181 0.0 0.0 0.00 0.00 0.00 99 1017.4
20260831112238 63 180 0.0 0.0 0.00 0.00 0.00 99 1017.4
20260831111733 63 184 0.0 0.0 0.00 0.00 0.00 99 1017.5
20260831111229 62 185 0.0 0.0 0.00 0.00 0.00 99 1017.5
20260831110724 62 180 0.0 0.0 0.00 0.00 0.00 99 1017.4
20260831110220 62 182 0.0 0.0 0.00 0.00 0.00 99 1017.3
20260831105718 62 183 0.0 0.0 0.00 0.00 0.00 99 1017.4
20260831105214 61 180 0.0 0.0 0.00 0.00 0.00 99 1017.3
20260831104709 61 183 0.0 0.0 0.00 0.00 0.00 99 1017.2
20260831104206 61 192 0.0 0.0 0.00 0.00 0.00 99 1017.2
20260831103705 61 182 0.0 0.0 0.00 0.00 0.00 99 1017.0
20260831103201 61 181 0.0 0.0 0.00 0.00 0.00 99 1016.9
20260831102700 61 175 0.0 0.0 0.00 0.00 0.00 99 1016.8
20260831102155 61 176 0.0 0.0 0.00 0.00 0.00 99 1016.9
20260831101651 60 177 0.0 0.0 0.00 0.00 0.00 99 1016.9
20260831101146 60 185 0.0 0.0 0.00 0.00 0.00 99 1016.9
20260831100642 60 178 0.0 0.0 0.00 0.00 0.00 99 1017.0
20260831100139 60 180 0.0 0.0 0.00 0.00 0.00 99 1017.1
20260831095636 60 178 0.0 0.0 0.00 0.00 0.00 99 1017.0
20260831095132 60 178 0.0 0.0 0.00 0.00 0.00 99 1016.9
20260831094627 60 181 0.0 0.0 0.00 0.00 0.00 99 1016.9
20260831094123 60 176 0.0 0.0 0.00 0.00 0.00 99 1016.6
20260831093618 61 182 0.0 0.0 0.00 0.00 0.00 99 1016.6
20260831093114 61 188 0.0 0.0 0.00 0.00 0.00 99 1016.6
20260831092610 61 184 0.0 0.0 0.00 0.00 0.00 99 1016.8
20260831092106 61 183 0.0 0.0 0.00 0.00 0.00 99 1016.7
20260831091605 60 177 0.0 0.0 0.00 0.00 0.00 99 1016.6
20260831091101 60 176 0.0 0.0 0.00 0.00 0.00 99 1016.8
20260831090556 60 176 0.0 0.0 0.00 0.00 0.00 99 1016.4
20260831090052 61 176 0.0 0.0 0.00 0.00 0.00 99 1016.5
20260831085547 61 176 0.0 0.0 0.00 0.00 0.00 99 1016.6
20260831085042 61 179 0.0 0.0 0.00 0.00 0.00 99 1016.5
20260831084538 61 186 0.0 0.0 0.00 0.00 0.00 99 1016.5
20260831084034 61 194 0.0 0.0 0.00 0.00 0.00 99 1016.7
20260831083530 61 214 0.9 0.9 0.00 0.00 0.00 99 1016.6
20260831083029 61 188 0.0 0.0 0.00 0.00 0.00 99 1016.6
20260831082524 61 181 0.0 0.0 0.00 0.00 0.00 99 1016.9
20260831082019 61 181 0.0 0.0 0.00 0.00 0.00 99 1016.9
20260831081515 61 181 0.0 0.0 0.00 0.00 0.00 99 1016.6
20260831081010 61 204 0.0 0.0 0.00 0.00 0.00 99 1016.7
20260831080504 61 180 0.0 0.0 0.00 0.00 0.00 99 1016.6
20260831080000 62 180 0.0 0.0 0.00 0.00 0.00 99 1016.7
20260831075455 62 181 0.0 0.0 0.00 0.00 0.00 99 1016.6
20260831074950 62 185 0.0 0.0 0.00 0.00 0.00 99 1016.6
20260831074445 62 176 0.0 0.0 0.00 0.00 0.00 99 1016.3
20260831073944 62 188 0.0 0.0 0.00 0.00 0.00 99 1016.4
20260831073439 62 193 0.0 0.0 0.00 0.00 0.00 99 1016.4
20260831072933 62 191 0.0 0.0 0.00 0.00 0.00 99 1016.3
20260831072429 62 192 0.0 0.0 0.00 0.00 0.00 99 1016.3
20260831071925 62 184 0.0 0.0 0.00 0.00 0.00 99 1016.4
20260831071424 62 210 0.0 0.0 0.00 0.00 0.00 99 1016.3
20260831070924 62 185 0.0 0.0 0.00 0.00 0.00 99 1016.4
20260831070424 63 178 0.0 0.0 0.00 0.00 0.00 99 1016.6
20260831065923 63 179 0.0 0.0 0.00 0.00 0.00 99 1016.2
20260831065420 63 179 0.0 0.0 0.00 0.00 0.00 99 1016.5
20260831064916 63 163 0.0 0.0 0.00 0.00 0.00 99 1016.2
20260831064411 63 182 0.0 0.0 0.00 0.00 0.00 99 1016.3
20260831063906 63 179 0.0 0.0 0.00 0.00 0.00 99 1016.3
20260831063401 64 184 0.0 0.0 0.00 0.00 0.00 99 1016.3
20260831062856 63 185 0.0 0.0 0.00 0.00 0.00 99 1016.6
20260831062351 63 179 0.0 0.0 0.00 0.00 0.00 99 1016.7
20260831061850 63 173 0.0 0.0 0.00 0.00 0.00 99 1016.6
20260831061349 63 185 0.0 0.0 0.00 0.00 0.00 99 1016.5
20260831060845 63 181 0.0 0.0 0.00 0.00 0.00 99 1016.6
20260831060340 63 182 0.0 0.0 0.00 0.00 0.00 99 1016.5
20260831055839 63 215 0.0 0.0 0.00 0.00 0.00 99 1016.5
20260831055335 63 184 0.0 0.9 0.00 0.00 0.00 99 1016.4
20260831054830 63 186 0.9 1.7 0.00 0.00 0.00 99 1016.4